Time,TemperatureF,DewpointF,PressureIn,WindDirection,WindDirectionDegrees,WindSpeedMPH,WindSpeedGustMPH,Humidity,HourlyPrecipIn,Conditions,Clouds,dailyrainin,SoftwareType,DateUTC
2013-04-21 00:03:00,32.0,20.0,30.43,NNE,32,0.0,-999.0,62,-99.99,,,-99.99,,2013-04-21 04:03:00,
2013-04-21 00:12:00,32.0,21.0,30.43,NNE,32,0.0,-999.0,63,-99.99,,,-99.99,,2013-04-21 04:12:00,
2013-04-21 00:23:00,32.0,21.0,30.43,NNE,32,0.0,-999.0,63,-99.99,,,-99.99,,2013-04-21 04:23:00,
2013-04-21 00:33:00,32.0,22.0,30.43,NNE,32,0.0,-999.0,66,-99.99,,,-99.99,,2013-04-21 04:33:00,
2013-04-21 00:42:00,32.0,22.0,30.43,NNE,32,0.0,-999.0,66,-99.99,,,-99.99,,2013-04-21 04:42:00,
2013-04-21 00:52:00,31.0,21.0,30.44,NNE,32,0.0,-999.0,65,-99.99,,,-99.99,,2013-04-21 04:52:00,
2013-04-21 01:02:00,30.0,21.0,30.44,NNE,32,0.0,-999.0,70,-99.99,,,-99.99,,2013-04-21 05:02:00,
2013-04-21 01:12:00,30.0,21.0,30.44,NNE,32,0.0,-999.0,70,-99.99,,,-99.99,,2013-04-21 05:12:00,
2013-04-21 01:22:00,29.0,20.0,30.45,NNE,32,0.0,-999.0,68,-99.99,,,-99.99,,2013-04-21 05:22:00,
2013-04-21 01:32:00,29.0,21.0,30.45,NNE,32,0.0,-999.0,72,-99.99,,,-99.99,,2013-04-21 05:32:00,
2013-04-21 01:42:00,29.0,21.0,30.45,NNE,32,0.0,-999.0,72,-99.99,,,-99.99,,2013-04-21 05:42:00,
2013-04-21 01:52:00,28.0,20.0,30.45,NNE,32,0.0,-999.0,73,-99.99,,,-99.99,,2013-04-21 05:52:00,
2013-04-21 02:01:00,28.0,20.0,30.45,NNE,32,0.0,-999.0,73,-99.99,,,-99.99,,2013-04-21 06:01:00,
2013-04-21 02:12:00,28.0,20.0,30.45,NNE,32,0.0,-999.0,72,-99.99,,,-99.99,,2013-04-21 06:12:00,
2013-04-21 02:22:00,28.0,20.0,30.45,NNE,32,0.0,-999.0,72,-99.99,,,-99.99,,2013-04-21 06:22:00,
2013-04-21 02:32:00,28.0,20.0,30.46,NNE,32,0.0,-999.0,70,-99.99,,,-99.99,,2013-04-21 06:32:00,
2013-04-21 02:42:00,28.0,20.0,30.46,NNE,32,0.0,-999.0,70,-99.99,,,-99.99,,2013-04-21 06:42:00,
2013-04-21 02:51:00,30.0,20.0,30.45,NNE,32,0.0,-999.0,65,-99.99,,,-99.99,,2013-04-21 06:51:00,
2013-04-21 03:02:00,30.0,19.0,30.45,NNE,32,0.0,-999.0,64,-99.99,,,-99.99,,2013-04-21 07:02:00,
2013-04-21 03:12:00,30.0,19.0,30.45,NNE,32,0.0,-999.0,64,-99.99,,,-99.99,,2013-04-21 07:12:00,
2013-04-21 03:21:00,30.0,19.0,30.45,NNE,32,0.0,-999.0,64,-99.99,,,-99.99,,2013-04-21 07:21:00,
2013-04-21 03:32:00,30.0,19.0,30.45,NNE,32,0.0,-999.0,63,-99.99,,,-99.99,,2013-04-21 07:32:00,
2013-04-21 03:42:00,30.0,19.0,30.45,NNE,32,0.0,-999.0,63,-99.99,,,-99.99,,2013-04-21 07:42:00,
2013-04-21 03:52:00,30.0,19.0,30.45,NNE,32,0.0,-999.0,64,-99.99,,,-99.99,,2013-04-21 07:52:00,
2013-04-21 04:01:00,29.0,19.0,30.46,NNE,32,0.0,-999.0,65,-99.99,,,-99.99,,2013-04-21 08:01:00,
2013-04-21 04:12:00,29.0,19.0,30.47,NNE,32,0.0,-999.0,66,-99.99,,,-99.99,,2013-04-21 08:12:00,
2013-04-21 04:21:00,29.0,19.0,30.47,NNE,32,0.0,-999.0,66,-99.99,,,-99.99,,2013-04-21 08:21:00,
2013-04-21 04:32:00,29.0,19.0,30.47,NNE,32,0.0,-999.0,67,-99.99,,,-99.99,,2013-04-21 08:32:00,
2013-04-21 04:42:00,29.0,19.0,30.47,NNE,32,0.0,-999.0,67,-99.99,,,-99.99,,2013-04-21 08:42:00,
2013-04-21 04:52:00,29.0,19.0,30.47,NNE,32,0.0,-999.0,66,-99.99,,,-99.99,,2013-04-21 08:52:00,
2013-04-21 05:02:00,29.0,19.0,30.48,NNE,32,0.0,-999.0,67,-99.99,,,-99.99,,2013-04-21 09:02:00,
2013-04-21 05:12:00,29.0,19.0,30.48,NE,55,0.0,-999.0,67,-99.99,,,-99.99,,2013-04-21 09:12:00,
2013-04-21 05:21:00,29.0,19.0,30.48,NE,55,0.0,-999.0,67,-99.99,,,-99.99,,2013-04-21 09:21:00,
2013-04-21 05:32:00,29.0,20.0,30.48,NE,55,0.0,-999.0,68,-99.99,,,-99.99,,2013-04-21 09:32:00,
2013-04-21 05:43:00,29.0,20.0,30.48,NE,55,0.0,-999.0,68,-99.99,,,-99.99,,2013-04-21 09:43:00,
2013-04-21 05:52:00,28.0,20.0,30.49,NE,55,0.0,-999.0,70,-99.99,,,-99.99,,2013-04-21 09:52:00,
2013-04-21 06:03:00,28.0,20.0,30.49,ENE,57,0.0,-999.0,72,-99.99,,,-99.99,,2013-04-21 10:03:00,
2013-04-21 06:12:00,28.0,21.0,30.50,ENE,57,0.0,-999.0,74,-99.99,,,-99.99,,2013-04-21 10:12:00,
2013-04-21 06:22:00,28.0,21.0,30.50,ENE,57,0.0,-999.0,74,-99.99,,,-99.99,,2013-04-21 10:22:00,
2013-04-21 06:32:00,27.0,20.0,30.51,ENE,57,0.0,-999.0,76,-99.99,,,-99.99,,2013-04-21 10:32:00,
2013-04-21 06:42:00,27.0,20.0,30.51,ENE,57,0.0,-999.0,76,-99.99,,,-99.99,,2013-04-21 10:42:00,
2013-04-21 06:52:00,27.0,20.0,30.51,ENE,67,0.0,-999.0,76,-99.99,,,-99.99,,2013-04-21 10:52:00,
2013-04-21 07:03:00,27.0,21.0,30.52,ENE,67,0.0,-999.0,78,-99.99,,,-99.99,,2013-04-21 11:03:00,
2013-04-21 07:12:00,27.0,21.0,30.52,ENE,67,0.0,-999.0,78,-99.99,,,-99.99,,2013-04-21 11:12:00,
2013-04-21 07:22:00,27.0,21.0,30.52,ENE,67,0.0,-999.0,79,-99.99,,,-99.99,,2013-04-21 11:22:00,
2013-04-21 07:34:00,27.0,21.0,30.53,East,82,0.0,-999.0,79,-99.99,,,-99.99,,2013-04-21 11:34:00,
2013-04-21 07:42:00,27.0,21.0,30.53,East,82,0.0,-999.0,79,-99.99,,,-99.99,,2013-04-21 11:42:00,
2013-04-21 07:52:00,27.0,22.0,30.54,East,82,0.0,-999.0,80,-99.99,,,-99.99,,2013-04-21 11:52:00,
2013-04-21 08:03:00,28.0,23.0,30.54,East,81,0.0,-999.0,80,-99.99,,,-99.99,,2013-04-21 12:03:00,
2013-04-21 08:12:00,29.0,23.0,30.55,ESE,111,0.0,-999.0,78,-99.99,,,-99.99,,2013-04-21 12:12:00,
2013-04-21 08:22:00,29.0,23.0,30.55,ESE,111,0.0,-999.0,78,-99.99,,,-99.99,,2013-04-21 12:22:00,
2013-04-21 08:32:00,30.0,24.0,30.55,ESE,111,0.0,-999.0,77,-99.99,,,-99.99,,2013-04-21 12:32:00,
2013-04-21 08:42:00,30.0,24.0,30.55,ESE,111,0.0,-999.0,77,-99.99,,,-99.99,,2013-04-21 12:42:00,
2013-04-21 08:52:00,32.0,25.0,30.55,ESE,112,0.0,-999.0,74,-99.99,,,-99.99,,2013-04-21 12:52:00,
2013-04-21 09:01:00,32.0,24.0,30.55,ESE,104,1.0,-999.0,72,-99.99,,,-99.99,,2013-04-21 13:01:00,
2013-04-21 09:12:00,33.0,25.0,30.55,ENE,74,1.0,-999.0,71,-99.99,,,-99.99,,2013-04-21 13:12:00,
2013-04-21 09:21:00,33.0,25.0,30.55,ENE,74,1.0,-999.0,71,-99.99,,,-99.99,,2013-04-21 13:21:00,
2013-04-21 09:32:00,35.0,27.0,30.55,SE,132,1.0,-999.0,71,-99.99,,,-99.99,,2013-04-21 13:32:00,
2013-04-21 09:42:00,35.0,27.0,30.55,SE,132,1.0,-999.0,71,-99.99,,,-99.99,,2013-04-21 13:42:00,
2013-04-21 09:52:00,35.0,26.0,30.56,SE,133,2.0,-999.0,68,-99.99,,,-99.99,,2013-04-21 13:52:00,
2013-04-21 10:02:00,37.0,27.0,30.56,ESE,105,1.0,-999.0,67,-99.99,,,-99.99,,2013-04-21 14:02:00,
2013-04-21 10:11:00,37.0,27.0,30.56,ESE,105,1.0,-999.0,67,-99.99,,,-99.99,,2013-04-21 14:11:00,
2013-04-21 10:21:00,37.0,25.0,30.56,SSE,152,3.0,-999.0,62,-99.99,,,-99.99,,2013-04-21 14:21:00,
2013-04-21 10:32:00,38.0,26.0,30.56,SSE,153,2.0,-999.0,61,-99.99,,,-99.99,,2013-04-21 14:32:00,
2013-04-21 10:42:00,38.0,26.0,30.56,SSE,153,2.0,-999.0,61,-99.99,,,-99.99,,2013-04-21 14:42:00,
2013-04-21 10:52:00,39.0,25.0,30.56,SE,135,3.0,-999.0,58,-99.99,,,-99.99,,2013-04-21 14:52:00,
2013-04-21 11:02:00,39.0,25.0,30.56,SSE,153,3.0,-999.0,58,-99.99,,,-99.99,,2013-04-21 15:02:00,
2013-04-21 11:11:00,39.0,25.0,30.56,SSE,153,3.0,-999.0,58,-99.99,,,-99.99,,2013-04-21 15:11:00,
2013-04-21 11:22:00,40.0,26.0,30.56,SE,140,5.0,-999.0,56,-99.99,,,-99.99,,2013-04-21 15:22:00,
2013-04-21 11:33:00,40.0,26.0,30.56,ESE,122,7.0,-999.0,56,-99.99,,,-99.99,,2013-04-21 15:33:00,
2013-04-21 11:43:00,40.0,26.0,30.56,ESE,122,7.0,-999.0,56,-99.99,,,-99.99,,2013-04-21 15:43:00,
2013-04-21 11:53:00,41.0,28.0,30.57,ESE,121,3.0,-999.0,60,-99.99,,,-99.99,,2013-04-21 15:53:00,
2013-04-21 12:03:00,41.0,27.0,30.56,SE,138,5.0,-999.0,57,-99.99,,,-99.99,,2013-04-21 16:03:00,
2013-04-21 12:12:00,41.0,27.0,30.56,SE,128,5.0,-999.0,56,-99.99,,,-99.99,,2013-04-21 16:12:00,
2013-04-21 12:23:00,41.0,27.0,30.56,SE,128,5.0,-999.0,56,-99.99,,,-99.99,,2013-04-21 16:23:00,
2013-04-21 12:33:00,43.0,28.0,30.56,SE,142,5.0,-999.0,55,-99.99,,,-99.99,,2013-04-21 16:33:00,
2013-04-21 12:42:00,43.0,28.0,30.56,SE,142,5.0,-999.0,55,-99.99,,,-99.99,,2013-04-21 16:42:00,
2013-04-21 12:52:00,43.0,29.0,30.55,ESE,121,2.0,-999.0,57,-99.99,,,-99.99,,2013-04-21 16:52:00,
2013-04-21 13:02:00,44.0,29.0,30.54,SSE,167,4.0,-999.0,55,-99.99,,,-99.99,,2013-04-21 17:02:00,
2013-04-21 13:12:00,44.0,29.0,30.54,ESE,116,4.0,-999.0,56,-99.99,,,-99.99,,2013-04-21 17:12:00,
2013-04-21 13:23:00,44.0,29.0,30.54,ESE,116,4.0,-999.0,56,-99.99,,,-99.99,,2013-04-21 17:23:00,
2013-04-21 13:32:00,44.0,28.0,30.53,SSW,192,4.0,-999.0,53,-99.99,,,-99.99,,2013-04-21 17:32:00,
2013-04-21 13:42:00,44.0,28.0,30.53,SSW,192,4.0,-999.0,53,-99.99,,,-99.99,,2013-04-21 17:42:00,
2013-04-21 13:52:00,44.0,30.0,30.53,SSE,155,5.0,-999.0,58,-99.99,,,-99.99,,2013-04-21 17:52:00,
2013-04-21 14:02:00,45.0,30.0,30.53,ESE,117,5.0,-999.0,55,-99.99,,,-99.99,,2013-04-21 18:02:00,
2013-04-21 14:11:00,45.0,30.0,30.53,ESE,117,5.0,-999.0,55,-99.99,,,-99.99,,2013-04-21 18:11:00,
2013-04-21 14:22:00,45.0,31.0,30.52,East,94,2.0,-999.0,57,-99.99,,,-99.99,,2013-04-21 18:22:00,
2013-04-21 14:33:00,46.0,31.0,30.51,ESE,119,3.0,-999.0,56,-99.99,,,-99.99,,2013-04-21 18:33:00,
2013-04-21 14:42:00,46.0,31.0,30.51,ESE,119,3.0,-999.0,56,-99.99,,,-99.99,,2013-04-21 18:42:00,
2013-04-21 14:52:00,46.0,30.0,30.50,SE,144,3.0,-999.0,54,-99.99,,,-99.99,,2013-04-21 18:52:00,
2013-04-21 15:02:00,46.0,31.0,30.50,SE,141,3.0,-999.0,56,-99.99,,,-99.99,,2013-04-21 19:02:00,
2013-04-21 15:12:00,46.0,31.0,30.50,SE,141,3.0,-999.0,56,-99.99,,,-99.99,,2013-04-21 19:12:00,
2013-04-21 15:22:00,46.0,30.0,30.49,SW,225,3.0,-999.0,53,-99.99,,,-99.99,,2013-04-21 19:22:00,
2013-04-21 15:32:00,47.0,32.0,30.48,East,80,3.0,-999.0,55,-99.99,,,-99.99,,2013-04-21 19:32:00,
2013-04-21 15:42:00,47.0,32.0,30.48,East,80,3.0,-999.0,55,-99.99,,,-99.99,,2013-04-21 19:42:00,
2013-04-21 15:52:00,47.0,30.0,30.48,South,171,5.0,-999.0,52,-99.99,,,-99.99,,2013-04-21 19:52:00,
2013-04-21 16:02:00,48.0,32.0,30.47,ESE,103,3.0,-999.0,54,-99.99,,,-99.99,,2013-04-21 20:02:00,
2013-04-21 16:11:00,48.0,32.0,30.47,ESE,103,3.0,-999.0,54,-99.99,,,-99.99,,2013-04-21 20:11:00,
2013-04-21 16:22:00,49.0,32.0,30.46,ESE,114,3.0,-999.0,52,-99.99,,,-99.99,,2013-04-21 20:22:00,
2013-04-21 16:32:00,49.0,31.0,30.45,South,191,4.0,-999.0,49,-99.99,,,-99.99,,2013-04-21 20:32:00,
2013-04-21 16:42:00,49.0,31.0,30.45,South,191,4.0,-999.0,49,-99.99,,,-99.99,,2013-04-21 20:42:00,
2013-04-21 16:52:00,49.0,32.0,30.45,SSE,148,4.0,-999.0,51,-99.99,,,-99.99,,2013-04-21 20:52:00,
2013-04-21 17:02:00,49.0,32.0,30.44,ESE,117,4.0,-999.0,52,-99.99,,,-99.99,,2013-04-21 21:02:00,
2013-04-21 17:12:00,49.0,31.0,30.43,East,101,3.0,-999.0,50,-99.99,,,-99.99,,2013-04-21 21:12:00,
2013-04-21 17:22:00,49.0,31.0,30.43,East,101,3.0,-999.0,50,-99.99,,,-99.99,,2013-04-21 21:22:00,
2013-04-21 17:33:00,49.0,30.0,30.43,SE,132,4.0,-999.0,48,-99.99,,,-99.99,,2013-04-21 21:33:00,
2013-04-21 17:43:00,49.0,30.0,30.43,SE,132,4.0,-999.0,48,-99.99,,,-99.99,,2013-04-21 21:43:00,
2013-04-21 17:53:00,49.0,31.0,30.42,ENE,70,2.0,-999.0,50,-99.99,,,-99.99,,2013-04-21 21:53:00,
2013-04-21 18:03:00,49.0,31.0,30.42,ENE,66,2.0,-999.0,50,-99.99,,,-99.99,,2013-04-21 22:03:00,
2013-04-21 18:12:00,50.0,32.0,30.42,ESE,105,2.0,-999.0,50,-99.99,,,-99.99,,2013-04-21 22:12:00,
2013-04-21 18:22:00,50.0,32.0,30.42,ESE,105,2.0,-999.0,50,-99.99,,,-99.99,,2013-04-21 22:22:00,
2013-04-21 18:33:00,49.0,31.0,30.42,NE,55,3.0,-999.0,50,-99.99,,,-99.99,,2013-04-21 22:33:00,
2013-04-21 18:43:00,49.0,31.0,30.42,NE,55,3.0,-999.0,50,-99.99,,,-99.99,,2013-04-21 22:43:00,
2013-04-21 18:52:00,49.0,31.0,30.42,SE,127,3.0,-999.0,49,-99.99,,,-99.99,,2013-04-21 22:52:00,
2013-04-21 19:02:00,49.0,32.0,30.42,ESE,105,4.0,-999.0,52,-99.99,,,-99.99,,2013-04-21 23:02:00,
2013-04-21 19:12:00,49.0,32.0,30.42,ESE,105,4.0,-999.0,52,-99.99,,,-99.99,,2013-04-21 23:12:00,
2013-04-21 19:22:00,49.0,32.0,30.42,East,94,3.0,-999.0,52,-99.99,,,-99.99,,2013-04-21 23:22:00,
2013-04-21 19:32:00,48.0,31.0,30.41,SSE,152,3.0,-999.0,51,-99.99,,,-99.99,,2013-04-21 23:32:00,
2013-04-21 19:42:00,48.0,31.0,30.41,SSE,152,3.0,-999.0,51,-99.99,,,-99.99,,2013-04-21 23:42:00,
2013-04-21 19:52:00,48.0,32.0,30.41,SE,136,3.0,-999.0,53,-99.99,,,-99.99,,2013-04-21 23:52:00,
2013-04-21 20:01:00,47.0,32.0,30.41,SE,136,2.0,-999.0,55,-99.99,,,-99.99,,2013-04-22 00:01:00,
2013-04-21 20:11:00,47.0,32.0,30.41,SE,136,2.0,-999.0,55,-99.99,,,-99.99,,2013-04-22 00:11:00,
2013-04-21 20:22:00,47.0,31.0,30.41,ESE,123,3.0,-999.0,54,-99.99,,,-99.99,,2013-04-22 00:22:00,
2013-04-21 20:32:00,46.0,32.0,30.41,SE,130,1.0,-999.0,57,-99.99,,,-99.99,,2013-04-22 00:32:00,
2013-04-21 20:42:00,46.0,32.0,30.41,SE,130,1.0,-999.0,57,-99.99,,,-99.99,,2013-04-22 00:42:00,
2013-04-21 20:51:00,46.0,32.0,30.41,SE,141,0.0,-999.0,59,-99.99,,,-99.99,,2013-04-22 00:51:00,
2013-04-21 21:01:00,45.0,32.0,30.42,East,86,0.0,-999.0,61,-99.99,,,-99.99,,2013-04-22 01:01:00,
2013-04-21 21:12:00,45.0,32.0,30.42,East,86,0.0,-999.0,61,-99.99,,,-99.99,,2013-04-22 01:12:00,
2013-04-21 21:22:00,44.0,32.0,30.41,ESE,111,0.0,-999.0,63,-99.99,,,-99.99,,2013-04-22 01:22:00,
2013-04-21 21:32:00,44.0,32.0,30.42,East,82,0.0,-999.0,63,-99.99,,,-99.99,,2013-04-22 01:32:00,
2013-04-21 21:42:00,44.0,32.0,30.42,East,82,0.0,-999.0,63,-99.99,,,-99.99,,2013-04-22 01:42:00,
2013-04-21 21:52:00,44.0,32.0,30.41,SE,128,1.0,-999.0,63,-99.99,,,-99.99,,2013-04-22 01:52:00,
2013-04-21 22:02:00,43.0,32.0,30.41,East,96,0.0,-999.0,64,-99.99,,,-99.99,,2013-04-22 02:02:00,
2013-04-21 22:11:00,43.0,32.0,30.42,ESE,121,0.0,-999.0,66,-99.99,,,-99.99,,2013-04-22 02:11:00,
2013-04-21 22:21:00,43.0,32.0,30.42,ESE,121,0.0,-999.0,66,-99.99,,,-99.99,,2013-04-22 02:21:00,
2013-04-21 22:32:00,42.0,32.0,30.42,ESE,107,0.0,-999.0,67,-99.99,,,-99.99,,2013-04-22 02:32:00,
2013-04-21 22:42:00,42.0,32.0,30.42,ESE,107,0.0,-999.0,67,-99.99,,,-99.99,,2013-04-22 02:42:00,
2013-04-21 22:52:00,42.0,32.0,30.42,SSE,152,0.0,-999.0,67,-99.99,,,-99.99,,2013-04-22 02:52:00,
2013-04-21 23:02:00,42.0,32.0,30.41,ENE,71,0.0,-999.0,68,-99.99,,,-99.99,,2013-04-22 03:02:00,
2013-04-21 23:11:00,42.0,32.0,30.41,ENE,71,0.0,-999.0,68,-99.99,,,-99.99,,2013-04-22 03:11:00,
2013-04-21 23:22:00,42.0,34.0,30.41,ESE,123,1.0,-999.0,72,-99.99,,,-99.99,,2013-04-22 03:22:00,
2013-04-21 23:33:00,41.0,34.0,30.40,East,91,0.0,-999.0,76,-99.99,,,-99.99,,2013-04-22 03:33:00,
2013-04-21 23:43:00,41.0,34.0,30.40,East,91,0.0,-999.0,76,-99.99,,,-99.99,,2013-04-22 03:43:00,
2013-04-21 23:52:00,40.0,33.0,30.40,East,97,1.0,-999.0,77,-99.99,,,-99.99,,2013-04-22 03:52:00,